GFSFLT2_850_spd_114.txt.gz
Wind_Speed
18 15 15 14 14 13 13 12 12 12 12 12 11 11 13 14 15 15 14 14 12 12 11 8 9 9 8 8 9 11 8 13
18 18 16 16 16 15 15 14 14 13 13 12 12 11 13 15 15 16 17 16 16 14 10 9 12 11 12 11 10 13 9 7
19 19 19 18 17 17 16 16 15 15 15 15 15 15 16 17 17 19 20 18 18 16 13 11 14 17 15 18 16 15 14 16
20 19 20 20 19 19 19 18 17 17 17 17 17 19 18 18 19 22 21 20 20 19 15 13 14 16 16 21 22 21 17 21
19 19 19 20 19 20 19 20 20 20 20 20 19 21 20 19 18 20 21 22 24 25 22 18 18 17 19 22 22 25 13 10
21 21 23 24 17 18 13 16 17 19 19 19 20 18 20 22 24 25 26 25 26 27 26 23 24 20 20 22 24 27 19 20
28 26 26 24 23 22 19 22 19 15 14 15 18 22 23 23 24 24 23 24 24 25 25 21 24 19 19 24 26 28 24 20
34 31 29 27 26 26 24 25 25 21 22 19 19 20 20 21 22 23 22 19 20 24 26 24 21 21 20 24 27 29 22 17
33 33 31 29 29 26 26 27 27 22 24 24 23 26 25 23 22 22 22 22 23 27 26 24 23 22 22 25 28 27 23 19
20 32 30 28 29 28 28 26 26 26 24 22 26 24 28 28 24 22 23 23 26 27 27 25 25 25 22 23 27 24 26 23
26 25 27 26 27 29 28 31 31 29 24 28 24 25 25 27 24 22 21 22 26 28 28 25 25 25 26 22 25 25 22 21
23 24 25 26 26 23 28 29 28 31 30 29 33 28 28 28 26 24 22 21 24 27 28 24 23 24 25 22 24 31 27 26
13 13 15 24 27 28 27 31 32 32 33 32 36 30 30 28 27 25 28 28 27 25 25 24 25 19 26 27 31 30 29 26
11 13 16 17 24 29 29 31 32 34 33 33 27 26 28 28 28 27 27 26 26 24 22 22 25 22 25 30 23 27 29 24
12 16 18 21 25 26 25 31 37 40 38 34 29 31 29 29 25 28 27 29 28 26 23 25 25 28 27 26 18 14 34 29
12 12 15 18 22 28 31 38 41 41 39 35 34 32 29 30 24 26 26 27 28 27 26 25 24 28 27 35 32 30 33 25
7 10 13 14 19 26 33 38 38 34 30 32 37 33 33 30 28 30 27 26 24 25 27 26 23 29 34 42 32 30 34 36
9 10 12 14 16 21 31 35 36 32 28 26 31 36 34 32 31 31 27 25 25 26 22 23 26 25 36 43 40 38 35 35
4 10 16 14 18 22 24 30 34 29 28 29 27 35 37 36 33 32 28 26 27 24 25 24 25 29 33 49 46 37 39 35
15 17 15 22 19 22 29 32 32 30 30 30 33 32 33 32 31 31 28 26 24 23 23 25 24 31 34 50 38 41 32 31

GFSFLT2_850_spd_117.txt.gz
Wind_Speed
20 18 16 15 14 14 14 13 13 13 13 12 12 12 12 10 11 10 11 11 11 10 10 4 4 8 9 10 9 10 11 9
21 20 19 18 17 16 15 14 14 13 13 13 13 14 14 13 12 12 13 13 13 13 12 8 8 10 10 11 12 9 9 5
23 22 20 20 19 17 17 16 15 15 15 14 15 15 15 15 15 15 16 16 15 15 15 11 10 11 13 11 13 12 11 8
24 24 23 21 21 19 18 17 17 17 17 17 16 16 16 16 16 17 18 18 17 17 17 13 12 11 16 14 18 17 14 13
26 25 25 24 23 21 21 19 19 19 19 18 18 17 18 18 17 18 20 20 20 21 21 18 15 14 16 16 21 21 18 14
23 25 25 25 24 23 21 21 21 20 20 20 20 20 20 20 19 19 20 20 22 23 23 20 19 18 18 16 21 23 24 13
25 25 26 25 24 22 21 20 20 18 20 20 19 21 20 21 22 22 21 22 23 24 24 23 23 23 21 18 22 24 26 24
31 28 26 25 24 23 22 21 19 18 17 17 17 19 20 21 22 23 23 22 21 25 24 23 24 21 22 19 22 24 27 28
39 35 31 28 25 24 24 24 22 22 23 20 19 20 21 21 23 24 23 21 19 21 23 21 22 22 17 18 22 23 28 31
31 40 37 32 28 24 25 28 30 27 26 24 23 23 23 23 24 24 21 22 22 23 25 25 24 23 20 21 20 25 29 28
26 35 40 37 32 27 23 30 29 30 29 26 25 27 27 27 26 24 23 24 25 25 26 26 25 25 22 23 19 22 28 24
36 35 38 38 36 30 24 24 32 30 31 30 27 26 29 31 31 29 27 25 25 26 26 26 27 24 24 23 22 22 23 21
35 34 39 40 37 32 27 24 28 34 36 33 33 30 28 30 32 29 27 27 27 27 27 27 28 25 23 21 22 19 22 28
19 14 29 32 29 27 26 21 23 30 31 34 35 35 32 28 32 35 32 30 28 26 27 29 28 26 24 22 17 24 27 34
20 16 12 13 15 19 23 23 24 30 31 36 38 37 35 31 33 36 35 33 33 28 28 28 30 28 29 20 9 12 26 31
19 16 16 14 8 24 26 29 32 35 37 38 37 35 31 30 31 32 35 36 35 29 27 28 27 28 28 30 26 15 21 19
9 12 13 13 15 12 18 31 33 36 36 40 39 34 33 34 33 32 32 34 35 31 29 28 28 29 29 30 31 32 28 31
12 9 5 5 7 12 20 19 32 38 38 39 35 31 40 38 36 36 34 33 31 31 28 30 29 29 29 29 30 37 38 43
11 6 4 10 15 12 15 19 26 35 37 36 33 28 34 47 42 39 36 35 30 28 27 28 30 27 29 30 30 41 38 41
3 5 10 15 21 24 25 19 22 32 31 30 30 30 30 34 43 41 36 35 31 28 28 29 27 28 25 29 28 41 38 45

GFSFLT2_850_spd_120.txt.gz
Wind_Speed
20 19 19 18 18 19 19 19 19 19 18 17 17 17 16 14 14 13 13 12 12 11 11 7 4 10 11 12 12 11 9 8
22 21 20 20 20 18 18 19 18 18 17 16 16 17 17 16 15 15 15 15 14 13 12 10 4 12 13 12 12 13 12 7
25 23 21 21 21 20 19 18 18 17 17 17 18 18 18 18 17 17 17 17 16 14 13 11 7 11 14 13 13 13 14 11
29 27 25 24 23 22 21 20 20 19 18 18 18 18 18 18 17 18 18 19 18 16 15 14 11 10 13 15 15 15 15 12
31 30 28 27 26 25 23 22 21 20 19 19 18 19 19 19 19 20 20 21 20 19 18 17 14 12 12 18 16 16 16 15
31 31 31 30 28 27 25 24 23 22 20 20 20 20 21 21 21 21 21 22 21 21 19 18 17 14 13 18 17 18 18 14
29 33 33 32 31 29 27 26 25 22 21 21 21 21 22 21 21 21 22 22 21 20 21 20 19 18 16 19 18 20 21 18
28 29 32 34 33 31 28 27 25 24 23 22 22 22 22 22 22 22 22 22 21 20 20 21 20 19 19 21 21 22 24 25
34 30 31 35 35 33 30 28 26 25 24 21 20 21 23 23 22 21 21 21 20 21 22 23 21 19 20 20 23 22 24 26
38 39 36 34 33 30 28 27 27 26 25 23 21 20 22 24 24 23 22 22 22 23 22 24 23 21 19 19 20 22 23 26
30 39 40 38 35 32 29 27 26 26 25 24 23 21 22 24 24 24 23 23 24 24 23 24 24 23 21 21 21 21 21 26
33 33 39 40 41 39 34 30 27 26 28 27 25 23 24 26 26 25 25 25 25 25 25 25 26 25 23 23 23 23 21 24
36 32 36 43 47 44 40 35 30 29 29 29 27 26 25 25 27 28 28 28 28 27 27 26 27 26 23 25 24 25 23 25
39 38 37 43 45 47 41 33 27 27 29 27 29 29 28 27 28 30 31 32 31 31 30 30 30 28 28 26 21 22 24 23
28 26 31 41 45 45 36 28 25 29 33 30 30 33 32 30 28 26 33 35 33 32 32 31 32 30 31 24 12 13 21 26
20 20 23 28 32 29 29 29 30 28 28 30 29 32 33 33 30 29 30 38 39 35 33 31 31 31 29 35 26 18 15 10
30 27 23 20 17 14 14 28 31 28 28 28 28 31 31 31 33 30 32 36 41 39 36 34 31 33 32 31 31 28 16 15
24 22 19 15 11 11 10 10 13 28 34 33 31 32 31 31 34 34 34 37 37 39 37 33 33 31 30 35 34 35 33 26
19 15 11 8 8 8 9 10 11 16 20 27 31 32 34 37 37 38 39 39 34 34 37 37 35 32 31 33 34 35 34 35
10 5 2 8 11 14 15 17 19 21 23 25 27 31 32 34 34 34 38 39 34 34 35 33 35 31 31 35 32 32 32 33

GFSFLT2_850_spd_123.txt.gz
Wind_Speed
25 24 23 22 22 23 22 22 21 21 20 19 19 18 16 14 13 13 12 11 11 12 11 8 11 12 12 12 11 10 9 5
25 25 25 25 24 23 22 22 21 21 20 19 19 18 16 14 14 13 13 13 12 13 12 8 7 13 13 13 13 13 10 8
27 25 26 27 26 25 23 22 21 21 21 20 20 19 18 17 15 15 15 14 14 13 12 11 7 13 15 13 13 13 12 10
30 28 26 27 27 26 26 24 24 23 22 22 21 20 19 18 17 17 17 16 15 15 13 13 10 12 13 15 14 14 13 14
34 31 30 28 28 28 27 27 26 24 23 22 21 20 20 20 19 20 20 19 18 17 17 15 14 13 13 15 16 15 15 14
37 34 32 31 29 28 27 27 26 24 23 23 22 22 22 21 21 21 21 21 20 19 18 16 15 14 13 14 17 15 16 16
37 37 35 33 33 31 29 27 27 25 24 24 24 23 22 22 22 22 22 22 21 20 19 18 17 17 16 15 16 16 15 18
38 37 37 37 35 34 32 30 28 27 26 25 24 23 22 22 22 24 24 23 21 20 18 17 18 19 18 17 17 18 17 18
35 35 37 37 37 36 35 33 32 31 30 28 26 24 24 23 23 24 24 23 22 20 19 19 19 20 20 19 19 20 21 21
34 34 32 35 39 39 38 36 34 33 31 30 28 26 25 24 24 24 23 22 22 22 21 21 21 22 21 20 20 20 23 24
42 37 34 34 34 37 38 36 35 32 29 28 27 25 23 23 25 24 22 22 24 23 23 23 22 22 22 21 20 21 19 21
44 41 37 35 37 36 35 35 34 31 28 28 26 25 23 22 23 24 24 25 25 26 25 24 23 21 21 22 22 23 22 22
44 39 33 36 42 43 41 39 36 32 29 27 26 25 24 23 23 23 26 27 27 26 25 25 23 22 20 23 24 24 25 25
36 38 35 36 41 42 44 43 38 35 28 23 24 27 25 24 23 23 26 28 28 28 27 28 27 25 23 24 20 24 26 27
41 38 36 35 41 46 47 43 42 32 27 26 26 25 27 26 25 23 24 27 28 31 32 31 30 28 28 24 11 17 19 28
41 32 36 40 42 43 42 42 39 35 30 26 25 26 28 28 28 25 25 26 26 31 33 32 32 32 29 31 31 24 13 15
25 25 27 31 33 30 30 27 28 25 27 27 26 25 29 31 30 27 29 31 30 29 33 37 36 35 32 32 30 32 31 20
33 30 27 23 23 24 26 23 31 33 31 27 27 28 28 30 32 29 27 30 32 31 30 36 39 35 34 30 34 31 36 31
30 25 23 18 16 14 13 15 16 21 23 27 31 31 32 33 34 33 31 32 34 33 33 34 38 37 38 31 32 32 35 37
23 19 16 12 8 5 6 10 14 17 19 22 25 28 30 29 32 35 35 33 33 34 36 37 35 39 37 34 32 30 34 35

GFSFLT2_850_spd_126.txt.gz
Wind_Speed
28 26 25 23 23 24 24 25 24 23 23 23 22 20 18 17 15 14 13 13 13 14 13 11 10 8 9 9 9 8 7 4
27 28 28 27 26 25 24 24 23 23 23 23 23 21 19 17 16 14 13 12 13 13 13 10 10 10 10 10 10 9 7 4
30 30 30 29 28 27 25 24 23 23 23 22 23 22 20 19 17 15 13 12 12 13 13 10 9 11 11 10 10 9 8 8
34 32 31 32 31 30 29 27 26 25 24 24 23 22 21 19 17 16 15 14 13 13 13 12 10 10 12 12 10 11 10 9
36 34 33 33 34 33 32 31 30 28 27 25 24 23 22 21 19 19 18 17 16 16 16 15 12 11 12 13 12 12 12 11
39 36 35 34 34 34 33 32 31 30 28 27 25 24 23 23 22 20 19 19 18 17 17 15 14 13 13 13 13 13 14 13
41 38 36 35 35 34 33 32 31 30 29 28 26 25 24 24 23 22 20 20 19 19 18 17 16 15 15 15 14 14 16 15
43 39 37 36 36 35 34 32 30 28 28 27 26 26 25 24 23 23 22 21 19 19 18 17 17 17 16 16 14 15 17 16
44 42 40 39 38 36 33 32 30 28 28 27 27 26 25 23 23 24 23 21 20 20 20 19 18 19 18 17 17 16 17 17
46 44 42 40 39 37 35 33 33 32 30 29 28 27 25 24 24 24 23 22 21 22 21 21 20 20 19 18 19 17 18 19
47 45 44 41 41 41 40 37 37 35 33 31 29 28 27 26 25 24 23 23 23 22 23 22 22 22 21 20 20 18 18 19
47 45 42 41 42 42 42 41 38 36 34 32 30 29 28 26 25 23 23 25 24 24 24 23 23 22 21 19 20 19 20 21
52 46 44 45 45 43 42 42 40 38 36 34 30 29 26 25 24 22 23 26 25 24 24 25 25 23 20 20 19 21 23 24
57 52 46 47 47 43 44 40 39 38 36 34 31 27 26 26 25 23 24 25 26 25 26 26 26 24 24 21 16 21 27 27
42 43 43 47 49 47 45 42 40 39 38 37 32 29 26 25 23 24 25 25 26 24 27 27 28 27 27 22 12 15 13 17
40 41 43 44 46 44 44 43 42 41 41 37 31 27 24 22 25 24 25 26 26 26 27 26 28 32 28 30 30 24 12 9
30 35 39 41 38 38 39 38 37 36 34 33 32 25 22 24 26 26 27 28 25 25 24 25 28 32 33 31 32 33 34 29
23 28 33 33 33 29 29 27 30 28 27 29 33 23 24 29 27 27 29 28 28 28 29 28 30 29 33 37 36 33 34 32
30 29 28 24 24 25 24 23 22 25 21 24 23 27 36 34 33 33 34 32 33 29 32 31 31 29 29 36 37 34 31 28
33 30 29 25 22 19 16 14 13 13 17 22 22 40 46 40 40 36 34 35 35 35 33 31 31 33 32 33 37 35 32 29

GFSFLT2_850_spd_129.txt.gz
Wind_Speed
31 30 28 26 25 25 25 25 25 24 24 23 22 21 19 18 17 16 15 15 15 13 12 10 8 8 8 8 8 7 7 5
33 31 29 28 27 26 26 26 25 25 24 24 23 21 20 18 17 17 16 16 15 14 12 10 8 8 7 7 7 6 5 3
34 32 30 29 28 28 27 26 26 26 26 25 25 23 21 20 18 17 16 16 15 15 13 10 8 8 7 7 8 7 6 5
37 34 32 31 31 31 31 30 29 29 28 28 28 26 24 21 19 18 17 16 16 15 14 12 10 9 9 9 9 8 7 7
40 36 34 34 35 35 34 33 32 31 30 30 29 28 26 24 22 21 20 19 18 17 17 15 12 10 10 9 10 8 8 8
40 38 37 37 37 37 36 36 34 34 33 31 30 30 28 26 25 23 22 22 21 19 18 16 14 12 11 11 10 10 10 10
42 41 41 40 40 39 38 37 36 35 34 32 31 30 29 27 26 25 24 22 22 20 18 17 16 14 13 13 12 12 11 13
45 44 43 42 41 41 40 38 37 36 34 33 32 30 29 28 27 26 25 24 22 21 18 17 16 15 14 14 14 13 13 14
48 47 45 44 44 42 41 39 38 37 36 34 33 31 30 28 26 26 26 24 22 21 20 19 18 17 16 16 16 16 15 15
47 50 49 47 45 44 42 39 36 36 35 35 34 32 30 28 27 26 25 24 24 23 22 21 20 19 18 17 17 17 17 17
40 53 53 50 47 45 42 40 38 37 36 35 33 32 30 28 26 25 25 25 25 25 25 24 23 21 19 19 18 19 19 19
40 44 54 52 50 47 43 42 41 40 37 34 32 31 31 29 28 27 26 27 27 27 26 25 24 21 19 20 19 19 19 21
42 41 51 55 55 52 49 47 46 43 40 38 36 34 33 31 31 29 29 29 28 28 27 27 25 23 20 21 21 20 21 22
44 44 43 53 56 53 51 47 46 44 43 42 40 38 35 32 32 31 29 28 28 29 30 29 26 26 25 23 19 21 26 26
44 44 44 51 54 53 50 46 43 44 45 44 43 39 35 33 33 31 29 28 28 28 30 30 29 27 27 23 10 14 11 14
40 44 46 47 54 53 50 46 45 44 43 44 40 38 34 30 31 30 28 26 28 28 28 28 28 31 27 30 31 20 9 6
36 41 40 45 50 50 47 45 43 41 39 37 36 35 34 32 30 23 23 26 28 30 27 28 31 31 29 30 32 34 32 25
32 34 37 36 37 38 36 38 37 34 31 30 30 34 36 33 35 29 35 28 31 30 31 30 31 31 31 30 32 34 36 34
30 29 29 27 28 29 28 26 25 26 26 26 25 26 28 33 25 30 31 32 35 38 35 33 33 35 34 32 31 30 32 33
31 29 28 25 25 25 25 23 24 23 26 24 23 23 21 20 20 25 30 34 40 44 39 36 33 35 36 37 33 29 27 32

GFSFLT2_850_spd_132.txt.gz
Wind_Speed
30 31 29 27 25 24 23 23 24 24 24 23 23 22 20 19 18 17 15 14 13 13 12 11 10 9 9 9 8 9 8 5
29 32 31 29 27 25 24 24 24 25 24 24 23 22 20 19 19 17 16 15 14 13 12 10 9 9 9 8 7 7 5 5
25 27 31 31 29 28 26 25 26 26 25 25 24 23 22 21 20 18 17 15 15 14 13 11 9 9 8 7 6 4 5 4
23 26 29 27 24 28 30 29 29 29 29 29 28 23 22 20 20 19 17 17 16 15 14 12 11 10 10 9 7 7 5 6
24 25 27 26 23 26 26 28 30 31 32 32 27 22 21 21 19 22 20 19 19 18 17 15 12 11 10 10 9 7 6 6
26 27 29 28 25 28 34 29 29 28 29 32 28 25 23 23 20 20 19 20 17 18 16 14 14 13 12 11 10 8 7 7
28 29 32 30 30 26 31 31 32 29 30 34 30 27 25 24 21 20 20 19 19 18 16 16 15 14 13 12 11 10 10 7
25 30 33 33 32 28 31 38 33 31 30 37 38 29 26 25 22 21 22 23 19 17 16 15 15 13 13 13 12 11 10 10
27 29 36 41 41 33 31 32 40 42 39 39 39 37 28 26 26 22 22 24 21 18 18 16 16 15 14 13 13 13 12 11
26 30 34 43 44 37 29 30 42 43 41 40 40 40 34 32 29 30 21 25 23 20 19 18 17 16 15 14 13 13 13 13
29 32 34 40 46 44 32 29 37 41 43 42 41 39 38 35 33 32 27 25 26 24 21 20 19 18 16 15 15 17 17 15
30 33 36 38 45 48 41 30 33 30 35 41 40 41 39 39 35 32 30 23 26 29 28 22 22 18 16 16 18 18 17 20
35 34 38 38 42 51 50 46 44 35 34 38 37 40 41 40 36 31 31 26 26 30 30 29 26 20 22 21 22 22 23 21
38 37 40 40 41 52 54 52 45 42 40 37 38 38 39 39 36 27 28 25 25 30 31 30 27 28 24 22 18 24 28 25
38 39 41 41 41 41 49 44 30 28 30 33 33 35 38 36 33 28 24 26 25 29 29 30 28 30 26 18 11 16 10 14
37 38 41 42 40 42 48 54 42 38 40 29 29 33 31 31 32 31 30 29 27 25 25 28 25 28 30 31 26 15 12 10
33 37 38 41 40 41 44 49 47 33 27 27 32 34 31 33 33 34 32 28 21 15 18 22 28 30 30 34 33 33 35 25
25 27 33 40 42 40 39 41 31 29 30 32 29 29 30 33 37 38 35 28 13 14 28 25 25 31 38 34 33 31 32 27
9 23 31 32 38 40 36 31 32 33 30 31 29 24 26 30 36 37 38 32 36 39 42 41 30 33 43 42 38 37 33 27
18 16 25 33 33 35 34 38 38 31 29 25 24 21 22 24 32 33 33 36 31 28 32 34 34 41 45 43 41 38 39 29

GFSFLT2_850_spd_135.txt.gz
Wind_Speed
15 29 27 25 23 21 20 20 21 22 23 23 22 20 19 18 17 16 14 12 11 10 10 9 7 7 6 6 7 10 9 4
14 21 28 26 25 23 21 21 21 22 23 23 22 21 20 19 18 16 15 13 12 11 10 9 8 7 6 6 6 8 7 3
16 17 20 24 26 25 23 22 22 23 24 24 24 23 22 21 19 18 16 14 13 12 11 10 8 8 7 7 6 4 3 3
18 21 21 22 20 23 27 26 26 27 28 27 26 23 23 21 21 19 17 16 15 13 13 11 10 8 10 9 7 3 4 5
20 23 24 24 23 21 23 23 28 29 29 29 27 23 23 21 21 21 20 18 17 16 16 14 10 11 9 7 5 6 6 7
19 25 26 26 25 25 23 25 26 26 27 30 28 27 25 27 23 19 19 19 16 16 14 13 12 11 11 8 9 8 8 7
19 25 29 28 30 25 26 28 27 27 28 31 30 27 27 26 23 22 22 20 18 17 15 13 14 14 13 13 11 10 9 9
21 25 32 29 30 30 28 30 27 29 30 32 34 30 28 27 25 25 23 24 18 23 19 17 17 13 13 14 13 12 12 10
22 23 29 34 35 35 29 28 30 31 31 32 33 33 29 27 28 26 24 24 23 21 17 16 14 14 13 14 14 14 13 13
24 24 30 36 37 36 34 31 36 30 32 31 37 38 29 29 26 26 24 28 27 21 20 23 22 15 15 13 12 15 16 17
30 29 27 35 40 38 39 37 36 36 40 31 39 38 35 29 27 28 26 24 29 26 21 25 19 20 19 18 14 14 13 14
33 33 34 35 38 42 41 38 38 33 32 35 29 39 41 35 29 28 31 24 26 27 23 20 20 19 17 20 20 19 16 16
37 36 36 31 40 42 41 42 41 38 37 35 36 36 43 42 32 29 30 27 23 27 27 24 23 19 20 20 19 20 19 19
38 41 41 42 40 44 44 42 43 46 40 36 35 33 39 44 45 28 29 27 26 25 27 27 24 24 21 15 14 17 23 26
37 40 41 41 40 43 41 40 40 43 39 33 36 36 42 40 44 37 25 24 26 30 28 28 27 26 25 16 10 17 16 15
37 37 39 41 49 43 46 45 47 44 44 45 37 41 40 37 40 40 29 26 24 28 27 28 26 26 27 31 28 20 9 10
23 35 37 40 45 45 47 47 45 39 42 42 37 33 34 35 36 36 33 30 31 26 21 24 24 25 24 23 27 31 28 25
17 17 35 38 45 43 54 51 42 41 40 39 38 36 37 34 32 29 35 38 32 29 21 17 18 21 24 28 26 26 25 28
17 17 19 29 35 41 56 50 48 40 41 41 38 39 37 37 35 35 39 39 37 32 36 39 40 44 40 32 29 31 28 33
22 14 8 10 30 31 33 42 44 39 38 38 38 41 37 36 38 38 37 38 37 35 34 38 43 46 46 35 31 32 34 39